Starlink 3626

operational
NORAD ID: 51792 Int'l Des: 2022-017 Owner: SPXS Country: US Constellation: starlink
LEOCIRCULAR

About Starlink 3626

Description loading...

Live Position

Loading 3D Globe...

Upcoming Passes

Altitude History

Altitude vs Time

uPlot chart will show altitude changes over time

Two-Line Element Set

1 51792U 22017AA 26093.80588345 .00000166 00000-0 28550-4 0 9994
2 51792 53.2177 236.3685 0002175 90.2108 269.9134 15.08845055227768
Epoch: Apr 3, 2026 • Age: 13 hours

Current Status

Altitude 539.6 km
Velocity 7.60 km/s
Sub-Earth Point 21.93°N, 72.79°E
Launch Date Feb 25, 2022
Age 4.1 years
Type internet

Technical Details

Classification Payload
Mass 297.00 kg
Dry Mass 275.00 kg
Total Mass 297.00 kg
Length 0.20 m
Diameter 2.80 m
Span 9.00 m
Shape Box + pan
Manufacturer SPXS
Bus Type Starlink
Phase Status In Orbit
Owner/State SPXS/US

Large Constellations

Loading constellations...